LiveATC.Net - Listen to live air traffic control over the Internet!


ICAO: 02C  IATA: 02C   Airport: Capitol Airport
City: Brookfield   State/Province: Wisconsin
Country: United States   Continent: North America
KUES METAR Weather: KUES 140955Z AUTO 26004KT 10SM BKN029 M07/M07 A3010 RMK AO2
02C Flight Activity (FlightAware)
02C Airport Info   (iFlightPlanner)
02C VFR Sectional Chart   (iFlightPlanner) 
02C IFR Low Chart   (iFlightPlanner) 

KUES Del/Gnd/Twr/02C
Feed Status: DOWN
Last heard on: 2019-11-14 10:02:05 (0 days 0 hours 1 minutes ago)
Archive Access: KUES Del/Gnd/Twr/02C
FacilityFrequency
Capitol CTAF122.700
Waukesha Clearance Delivery128.700
Waukesha Ground121.600
Waukesha Tower123.700

NOTICE

Unauthorized use prohibited. See LiveATC.net Terms of Service


Airport/ARTCC Code
Frequency Search
(e.g., 124.400, 128.75)
Site-wide search
 


Browse LiveATC Feeds
Top 50 LiveATC Feeds
LiveATC Feed Map
Bad Weather Areas

LiveATC FAQ
Offer LiveATC feed
Contact LiveATC.net
Press Inquiries

LiveATC on iPhone
LiveATC on Android

Windows Phone
Windows 8/10

LiveATC Mobile
(Mobile browser)

ATC Audio Archives
Interesting Recordings

LiveATC Forums


Home Page
About LiveATC.net
Make a Donation
Terms of Use
Privacy Policy

Canadian Air Freqs

AIRMETs/SIGMETs

FAA Airport Status
Nat'l Airspace Status
Arrival Demand Charts


Server Software By:
Icecast.org
Liquidsoap